Temp
9 9 9 9 9 9 9 9 9 9 10 10 10 10 10 10 10 11 11 11 11 11 11 11 11 11 11 11 10 10 9 9 9 9 9 9 9 9 9 8 8 7 8 8 7 7 7 8 8 9 9 9 9 9 8 8 8 8 8 8 8 8 8 8 8 8 8 8 8 8 8 8 8 8 8 8 8 8 8 8 8 8 8 8 8
10 9 9 9 9 9 9 9 9 9 10 10 10 10 10 10 10 10 10 11 11 11 11 11 11 11 11 11 10 10 9 9 9 9 9 9 9 9 8 8 8 8 8 8 8 7 7 8 8 9 9 9 9 8 8 8 8 8 8 8 8 8 8 8 8 8 8 8 8 8 8 8 8 8 8 8 8 8 8 8 8 8 8 8 8
9 9 9 9 9 9 9 9 9 9 10 10 10 10 10 10 10 10 10 10 10 10 11 11 11 11 11 10 10 10 9 9 9 9 9 9 9 9 8 8 8 8 8 8 8 8 8 8 8 9 9 9 8 8 8 8 8 8 8 8 8 8 8 8 8 8 8 8 8 8 8 8 8 8 8 8 8 8 8 8 8 8 8 8 8
9 9 9 9 9 9 9 9 9 9 10 10 10 10 10 10 10 10 10 10 10 10 10 10 10 11 10 10 10 9 9 9 9 9 9 9 8 8 8 8 8 8 8 8 8 8 8 8 8 9 9 9 8 8 8 8 8 8 8 8 8 8 8 8 8 8 8 8 8 8 8 8 8 8 8 8 8 8 8 8 8 8 8 8 8
9 9 9 9 9 9 9 9 9 9 10 9 9 9 9 9 9 10 10 10 10 10 10 10 10 10 10 10 10 9 9 9 9 9 9 8 8 8 8 8 8 8 8 8 8 8 8 8 8 9 9 8 8 8 8 8 8 8 8 8 8 8 8 8 8 8 8 8 8 8 8 8 8 8 8 8 8 8 8 8 8 8 8 8 8
9 9 9 9 9 9 9 9 9 9 9 9 9 9 9 9 9 9 9 9 9 9 9 9 9 10 10 10 10 9 9 9 9 9 9 8 8 8 7 7 7 7 8 8 8 8 8 8 8 8 9 8 8 8 8 8 8 8 8 8 8 8 8 8 8 8 8 8 8 8 8 8 8 8 8 8 8 8 8 8 8 8 8 8 8
9 9 9 9 9 9 9 9 9 9 9 9 9 9 9 9 9 9 9 9 9 9 9 9 9 9 10 10 9 9 9 9 9 9 9 8 8 8 7 7 7 7 8 8 8 8 8 8 8 8 8 8 8 8 8 8 8 8 8 8 8 8 8 8 8 8 8 8 8 8 8 8 8 8 8 8 8 8 8 8 8 8 8 8 8
9 9 9 9 9 9 9 9 9 9 9 9 8 8 9 9 9 9 8 8 8 8 8 8 8 8 9 9 9 9 9 9 9 9 9 9 8 7 7 7 6 7 7 8 8 8 8 8 9 8 8 8 8 8 7 8 8 8 8 8 8 8 8 8 8 8 8 8 8 8 8 8 8 8 8 8 8 8 8 8 8 8 8 8 8
10 10 9 9 9 9 9 9 9 9 9 8 8 8 8 8 8 8 8 8 8 8 7 7 7 7 8 9 9 9 9 9 8 8 9 9 8 7 7 7 6 6 7 7 8 8 8 8 9 9 8 8 8 8 7 8 8 8 8 8 8 8 8 8 8 8 8 8 8 8 8 8 8 8 8 8 8 8 8 8 8 8 8 8 8
10 10 10 9 10 10 10 9 9 9 8 8 8 8 8 8 8 8 8 8 7 7 7 7 7 7 7 8 8 8 8 8 8 8 8 9 8 7 7 6 6 6 6 7 7 8 8 8 9 9 8 8 8 8 7 7 8 8 8 8 8 8 8 8 8 8 8 8 8 8 8 8 8 8 8 8 8 8 8 8 8 8 8 8 8
10 10 10 10 10 10 9 9 9 9 8 8 8 8 8 8 8 8 8 7 7 7 7 7 7 7 7 7 8 8 8 8 8 8 8 8 8 7 7 7 6 6 6 6 7 7 8 8 9 9 8 8 8 8 8 8 8 8 8 8 8 8 8 8 8 8 8 8 8 8 8 8 8 8 8 8 8 8 8 8 8 8 8 8 8
10 9 9 9 9 9 9 9 9 9 9 8 8 8 8 8 8 7 7 7 7 7 7 7 7 6 6 7 7 7 7 7 7 7 8 8 8 7 7 7 6 6 6 6 6 7 7 8 9 8 8 8 8 8 8 8 8 8 8 8 8 8 8 8 8 8 8 8 8 8 8 8 8 8 8 8 8 8 8 8 8 8 8 8 8
9 9 9 9 9 9 9 9 9 9 8 8 8 8 8 8 7 7 7 7 7 6 6 6 6 6 6 7 7 7 7 7 7 7 7 7 8 7 7 7 7 6 6 6 6 7 7 8 8 8 8 8 7 7 7 8 8 8 8 8 8 8 8 8 8 8 8 8 8 8 8 8 8 8 8 8 8 8 8 8 8 8 8 8 8
9 9 9 9 9 9 9 9 9 8 8 8 7 7 7 7 7 7 7 7 7 6 6 6 6 6 6 6 7 6 7 7 7 7 7 7 7 7 7 7 7 7 6 6 6 7 7 8 8 8 8 8 7 7 7 8 8 8 8 8 7 8 8 8 8 8 8 8 8 8 8 8 8 8 8 8 8 8 8 8 8 8 8 8 8
9 9 9 9 9 9 9 9 8 8 8 8 7 7 7 7 7 7 7 6 6 6 6 6 6 6 6 6 6 6 6 6 7 7 7 7 7 8 8 7 7 7 7 7 7 7 7 7 8 8 8 7 7 7 7 7 7 8 8 8 8 8 8 8 8 8 8 8 8 8 8 8 8 8 8 8 8 8 8 8 8 8 8 8 8
9 9 9 9 9 9 8 8 8 8 7 7 7 7 7 6 6 6 6 6 6 6 6 6 6 6 6 6 6 6 6 6 7 7 7 7 7 8 8 8 8 8 8 7 7 7 7 7 8 8 8 8 7 7 7 7 7 8 8 8 8 8 7 7 8 8 8 8 8 8 8 8 8 8 8 8 8 8 8 8 8 8 8 8 8
9 9 9 9 9 9 8 8 8 8 7 7 7 6 6 6 6 6 6 6 6 6 6 6 6 6 6 6 6 6 6 6 6 7 7 7 7 8 8 8 8 8 8 8 8 7 7 8 8 8 8 8 7 7 7 7 7 8 8 8 8 8 7 7 8 8 8 8 8 8 8 8 8 8 8 8 8 8 8 8 8 8 8 8 8
9 9 9 9 9 9 9 8 8 8 7 7 7 6 6 5 5 6 6 6 6 5 5 5 6 6 6 6 6 6 6 6 6 7 7 7 7 7 7 8 8 8 8 8 8 8 7 8 8 8 8 8 7 7 7 7 7 8 8 8 8 8 7 7 7 8 8 8 8 8 8 8 8 8 8 8 8 8 8 8 8 8 8 8 8
9 9 9 9 9 9 9 8 8 8 7 7 6 6 5 5 5 5 5 6 6 5 5 5 5 5 6 6 6 6 6 6 6 6 7 7 7 7 7 8 8 8 8 8 8 8 8 8 8 8 8 8 8 7 7 7 7 8 8 8 8 8 7 7 7 7 7 8 8 8 8 8 8 8 8 8 8 8 8 8 8 8 8 8 8
9 9 9 9 9 9 9 9 8 8 8 7 6 6 6 5 5 5 5 6 6 5 5 5 5 5 5 6 6 6 6 6 6 6 7 7 7 7 7 7 8 8 8 8 8 8 8 8 8 8 8 8 8 7 7 7 7 7 8 8 8 8 7 6 6 6 7 7 8 8 8 8 8 8 8 8 8 8 8 8 8 8 8 8 8
9 9 8 9 9 8 8 8 8 8 8 7 7 6 6 6 5 5 5 5 5 5 5 5 5 5 5 5 6 6 6 6 6 6 6 7 7 7 7 7 7 8 8 8 8 8 8 8 8 8 8 8 8 7 7 7 7 7 8 8 9 8 7 7 6 6 6 7 7 8 8 8 8 8 8 8 8 8 8 8 8 8 8 8 8
8 8 8 9 8 8 8 8 8 8 8 8 7 7 6 6 5 5 5 5 5 5 5 5 5 5 5 5 6 6 6 6 6 6 6 6 7 7 7 7 7 7 7 7 8 8 8 8 8 8 8 7 7 7 7 7 7 7 7 8 8 8 7 7 7 6 6 7 7 7 7 8 8 8 8 8 8 8 8 8 8 8 8 8 8
8 8 8 8 8 8 8 8 8 8 8 7 7 6 6 6 6 5 5 5 5 5 5 5 5 5 5 5 6 6 6 6 6 6 6 6 6 6 6 6 7 7 7 7 7 7 8 8 8 8 8 7 7 7 7 7 7 7 7 8 8 8 7 7 7 7 7 7 7 7 7 7 7 7 7 8 7 7 7 7 8 8 8 7 7
8 8 8 8 8 8 8 8 8 8 7 7 7 6 6 6 6 5 5 5 5 6 5 5 5 5 5 5 6 6 6 6 6 5 5 5 6 5 5 5 6 6 6 7 7 7 7 7 7 8 8 7 7 7 7 7 7 7 7 7 8 8 7 7 7 7 7 7 7 7 7 7 7 7 7 7 7 7 7 7 7 7 7 7 7
8 8 8 8 8 8 8 7 8 8 7 7 7 7 6 6 5 5 5 5 5 5 5 5 5 5 5 5 5 6 6 5 5 5 5 5 5 5 5 5 5 6 6 6 6 7 7 7 7 7 7 7 7 7 7 7 7 7 7 7 8 7 7 7 7 7 7 7 7 7 7 7 7 7 7 7 7 7 7 7 7 7 7 7 7
8 8 8 8 8 8 8 7 8 8 8 8 7 7 6 6 6 5 5 5 5 5 5 5 5 5 5 5 5 5 5 5 5 5 5 4 5 5 5 5 5 5 6 6 6 6 6 7 7 7 8 7 7 7 7 7 7 7 7 7 8 8 7 7 7 7 7 7 7 7 7 7 7 7 7 7 7 7 7 7 7 7 7 7 7
8 8 8 8 8 8 8 7 7 7 8 8 7 7 6 6 6 5 5 5 5 5 5 5 5 5 5 5 5 5 5 5 5 5 4 4 4 4 4 5 5 5 5 6 6 6 6 7 7 7 8 7 7 7 7 7 7 7 7 7 7 8 7 7 7 7 7 7 7 7 7 7 7 6 6 6 7 7 7 7 7 7 7 7 7
7 7 7 7 7 7 7 7 7 7 7 7 7 7 6 6 6 5 5 5 5 5 4 4 5 5 4 4 5 5 5 5 5 4 4 4 4 4 4 4 5 5 5 5 6 6 6 7 7 7 7 7 7 7 7 7 7 7 7 7 7 8 8 7 7 7 7 7 7 7 6 6 6 6 6 6 6 6 6 7 6 6 7 7 7
7 7 7 7 7 7 6 7 7 7 7 7 7 6 6 6 5 5 5 5 4 4 4 4 4 4 4 4 4 4 4 4 4 4 4 5 4 4 4 4 5 5 5 5 5 6 6 6 7 7 7 7 7 7 7 6 7 7 7 7 7 7 7 7 7 7 7 7 7 7 7 6 6 6 6 6 6 6 6 6 6 6 6 7 7
7 7 6 6 6 6 6 6 7 7 7 7 7 6 6 5 5 5 5 5 4 4 4 4 4 4 4 4 4 4 4 4 4 4 4 4 5 5 4 4 5 5 5 5 4 5 5 6 6 6 6 6 7 6 6 6 6 7 7 7 7 7 7 7 7 7 7 7 7 7 7 7 7 6 6 6 6 6 6 6 6 6 6 7 7
6 6 6 6 6 6 6 6 6 7 7 7 6 6 6 5 5 5 5 5 4 4 4 4 4 4 4 4 4 4 4 4 4 4 4 4 5 5 4 4 4 4 4 4 4 4 5 5 5 6 6 6 6 6 6 6 6 6 7 7 7 7 7 7 7 7 7 7 7 7 7 7 7 7 6 6 6 6 6 6 6 6 6 7 7
6 6 6 6 5 5 6 6 6 6 6 6 6 6 5 5 5 5 5 4 4 4 4 4 4 4 4 4 4 4 4 4 4 4 4 5 5 5 4 4 4 4 4 4 4 4 4 5 5 5 5 5 6 6 6 6 6 6 6 6 7 7 7 7 7 7 7 7 7 7 7 7 7 7 7 6 6 6 6 6 6 6 6 7 7
6 5 5 5 5 5 5 5 5 5 5 5 5 5 5 5 5 5 5 4 4 4 4 4 4 4 4 4 4 4 4 4 4 4 4 4 4 4 4 4 4 3 3 3 4 4 4 4 4 4 5 5 5 5 5 5 6 6 6 6 6 6 6 6 7 7 7 7 7 7 7 6 7 7 7 6 6 6 6 6 6 6 6 7 7
5 5 5 5 5 5 4 5 5 5 5 5 5 5 5 5 5 5 5 5 4 4 4 4 4 4 4 4 4 4 4 4 4 4 4 4 4 4 4 4 4 3 3 3 3 3 4 4 4 4 4 4 4 4 5 5 5 6 6 6 6 6 6 6 6 7 7 7 7 6 6 6 6 7 7 6 6 6 6 6 6 6 6 7 7
5 4 4 4 4 4 4 4 4 4 4 4 4 4 4 4 5 4 4 5 5 5 5 4 4 4 4 4 4 4 4 4 4 4 4 4 4 4 4 4 4 4 3 3 3 3 3 3 3 3 4 4 4 4 5 5 5 5 6 6 6 6 6 6 6 6 7 7 7 6 6 6 6 6 6 6 6 6 6 6 6 6 6 7 7
4 4 4 4 4 4 4 4 4 4 4 4 4 4 4 4 4 4 4 4 4 5 5 5 5 5 4 4 4 4 4 4 4 4 4 4 4 4 4 4 4 3 3 3 3 3 3 3 3 3 3 4 4 4 5 5 5 5 6 6 6 6 6 6 6 6 7 7 7 7 6 6 6 6 6 6 6 6 6 6 6 7 7 7 7
4 4 4 3 3 3 3 3 3 3 3 3 3 3 4 4 4 4 4 4 4 4 4 5 5 5 5 4 4 4 4 4 4 4 4 4 4 4 4 4 4 3 3 3 3 3 3 3 2 3 3 3 3 4 4 5 5 5 6 6 6 6 6 6 6 6 7 7 7 7 7 6 6 6 6 6 6 6 6 6 6 7 7 7 7
4 4 3 3 3 3 3 3 3 3 3 3 3 3 3 3 3 3 3 4 4 4 4 4 5 5 4 4 4 4 4 4 4 4 4 4 3 3 3 3 3 3 3 3 3 3 3 2 2 2 3 3 3 3 3 4 5 5 5 5 6 6 6 6 7 7 7 7 7 7 7 7 7 7 7 6 6 6 6 6 6 7 7 7 7
3 3 3 3 3 3 3 3 3 3 3 3 3 3 3 3 3 3 3 3 3 4 4 4 4 4 4 4 4 4 4 4 4 3 4 4 3 3 3 3 3 3 3 3 3 3 3 3 3 2 3 3 3 3 3 3 4 4 4 5 5 6 6 6 6 6 6 7 7 7 7 7 7 7 7 7 7 7 7 7 7 7 7 7 7
3 3 3 3 3 3 3 3 3 3 3 3 2 2 2 2 2 2 2 3 3 3 3 4 4 4 4 4 4 4 4 4 4 4 3 3 3 3 3 3 3 3 3 3 3 3 3 3 3 3 3 3 3 3 3 3 3 4 4 4 5 5 5 5 5 6 6 6 6 6 6 7 7 7 7 7 7 7 7 7 7 7 7 7 7
4 3 3 3 3 3 3 3 3 3 3 2 2 2 2 2 2 2 2 2 2 3 3 3 3 4 4 4 4 4 4 4 4 4 4 3 3 3 3 3 3 3 3 3 3 3 3 3 3 4 3 3 3 3 3 3 3 3 4 4 4 5 5 5 5 5 5 5 5 6 6 6 6 7 7 7 7 7 7 7 7 7 7 7 7
4 3 3 3 3 3 3 3 3 3 3 2 2 2 2 3 3 2 2 2 2 2 3 3 3 3 3 4 4 4 4 4 4 4 4 4 4 3 3 3 3 3 3 3 3 3 3 3 3 4 3 3 3 3 3 3 3 3 3 4 4 4 4 5 5 5 5 5 5 5 5 6 6 6 6 7 7 7 7 7 7 7 7 7 7
4 3 3 3 3 3 3 2 3 3 3 2 2 2 2 3 3 3 3 2 2 2 2 2 3 3 3 3 4 4 4 4 4 4 4 4 4 4 3 3 3 3 3 3 3 3 3 3 4 4 3 3 3 3 3 3 3 3 3 3 4 4 4 4 5 4 4 4 4 5 5 5 5 6 6 6 6 6 7 7 7 7 7 7 7
4 4 3 3 3 3 3 2 2 2 3 2 2 2 2 3 3 3 2 2 2 3 2 2 2 2 3 3 3 3 4 4 4 4 4 4 4 4 4 3 3 3 3 3 3 3 3 3 4 4 4 4 3 3 3 3 3 3 3 3 3 4 4 4 5 4 4 4 4 4 4 4 4 5 5 6 6 6 6 6 7 7 7 7 7
4 4 4 3 3 3 2 2 2 2 2 2 2 2 2 3 3 2 2 2 2 2 2 2 2 2 2 2 3 3 3 3 4 4 4 4 4 4 4 4 4 4 3 3 3 3 3 4 4 4 4 4 3 3 4 3 3 3 3 4 3 3 4 4 4 4 4 4 4 4 4 4 4 4 4 5 5 6 6 6 6 6 7 7 7
4 4 4 3 3 3 2 2 2 2 2 2 2 2 2 2 2 2 1 1 2 2 2 2 2 2 2 2 2 2 3 3 3 3 3 4 4 4 4 4 4 4 4 4 4 4 4 4 4 4 4 4 4 3 4 3 3 3 3 3 3 3 3 3 4 4 4 4 4 3 3 4 3 3 4 4 4 5 5 6 6 6 6 6 6
4 4 4 3 3 3 2 2 2 2 2 2 2 2 2 2 2 1 1 1 1 1 1 2 2 2 2 2 2 2 2 2 3 3 3 3 3 3 4 4 4 4 4 4 4 4 4 4 4 4 4 4 4 4 3 3 3 3 3 3 3 3 3 3 3 3 3 4 3 3 3 3 3 3 3 4 4 4 5 5 5 5 5 6 6
4 4 4 3 3 3 2 2 2 2 2 2 2 2 2 1 1 1 1 1 1 1 1 2 2 2 2 2 2 2 2 2 2 2 3 3 3 3 3 3 3 4 4 4 4 4 4 4 4 4 4 4 4 4 4 3 3 3 3 3 3 3 3 3 3 3 3 3 3 3 3 3 3 3 3 3 4 4 4 4 5 5 5 5 5
4 4 4 3 3 3 2 2 2 2 2 2 2 2 1 1 1 1 1 1 1 1 1 1 1 1 1 1 1 1 2 2 2 2 2 2 3 3 3 3 3 3 3 3 4 4 4 3 3 3 3 4 4 4 4 4 4 3 3 3 3 3 3 3 3 3 3 3 3 3 3 3 3 3 3 3 4 4 4 4 4 4 5 5 5
4 4 3 3 3 3 2 2 2 2 2 1 1 1 1 1 1 1 1 1 1 1 1 1 1 1 1 1 1 1 1 2 2 2 2 2 2 2 3 3 3 3 3 3 3 3 3 3 3 3 3 3 3 3 4 4 4 4 3 3 3 3 3 3 3 3 3 3 3 3 3 3 3 3 3 3 3 4 4 4 4 4 5 5 4
4 4 3 3 3 3 2 2 2 2 2 1 1 1 1 1 1 1 1 1 1 1 1 1 1 1 1 1 1 1 1 1 1 1 2 2 2 2 2 2 3 3 3 3 3 3 3 3 3 3 3 3 3 3 3 3 4 4 3 3 4 4 3 3 3 3 3 3 3 3 3 3 3 3 3 3 3 3 4 4 4 4 4 4 4
Height
3161 3162 3162 3163 3164 3165 3166 3166 3166 3167 3167 3167 3168 3168 3168 3168 3168 3168 3168 3168 3168 3167 3167 3166 3166 3165 3165 3164 3163 3162 3161 3161 3161 3161 3160 3160 3161 3161 3162 3162 3163 3163 3164 3165 3165 3166 3167 3168 3169 3170 3171 3171 3172 3173 3174 3175 3176 3177 3179 3181 3182 3183 3183 3184 3185 3185 3186 3187 3187 3188 3189 3188 3188 3188 3189 3190 3190 3191 3191 3191 3190 3190 3190 3190 3190
3161 3161 3162 3163 3164 3165 3166 3166 3166 3167 3167 3168 3168 3168 3168 3168 3169 3169 3168 3168 3168 3168 3167 3166 3166 3165 3165 3164 3164 3163 3162 3162 3162 3161 3161 3161 3161 3161 3162 3162 3163 3163 3164 3165 3165 3165 3167 3167 3168 3170 3171 3172 3173 3173 3174 3175 3176 3178 3179 3181 3182 3183 3184 3185 3186 3186 3187 3188 3188 3189 3190 3190 3189 3190 3190 3191 3191 3192 3192 3192 3192 3191 3191 3191 3191
3160 3161 3162 3163 3163 3165 3165 3166 3166 3167 3167 3168 3168 3168 3168 3168 3169 3168 3168 3169 3169 3169 3168 3167 3166 3165 3165 3164 3164 3163 3163 3163 3162 3162 3161 3161 3162 3162 3162 3163 3163 3164 3164 3165 3165 3166 3166 3167 3168 3170 3171 3172 3173 3174 3175 3176 3176 3178 3180 3181 3183 3184 3185 3186 3186 3187 3187 3188 3189 3189 3190 3191 3191 3191 3191 3192 3192 3192 3193 3193 3193 3193 3193 3192 3192
3160 3161 3162 3162 3163 3164 3165 3166 3166 3166 3167 3167 3168 3168 3168 3168 3168 3168 3169 3169 3169 3169 3168 3168 3167 3166 3165 3164 3164 3163 3163 3163 3163 3162 3162 3162 3162 3162 3163 3163 3163 3164 3165 3165 3165 3166 3166 3167 3169 3170 3171 3172 3173 3174 3175 3176 3177 3178 3180 3182 3183 3184 3185 3186 3187 3187 3188 3189 3190 3190 3191 3192 3192 3192 3192 3193 3193 3193 3194 3194 3194 3194 3194 3193 3193
3160 3161 3161 3162 3163 3164 3165 3165 3166 3166 3166 3167 3168 3168 3168 3168 3168 3168 3168 3169 3168 3168 3168 3168 3167 3166 3165 3165 3164 3163 3163 3163 3163 3163 3162 3163 3163 3163 3163 3163 3164 3164 3165 3165 3166 3166 3166 3168 3169 3170 3171 3172 3173 3174 3175 3176 3177 3178 3180 3181 3183 3184 3186 3187 3187 3188 3188 3189 3190 3191 3192 3192 3193 3194 3194 3194 3194 3195 3195 3195 3195 3195 3195 3194 3194
3160 3161 3161 3162 3162 3163 3164 3165 3165 3166 3166 3166 3167 3167 3167 3168 3168 3168 3168 3168 3168 3168 3167 3167 3167 3167 3166 3165 3164 3163 3163 3163 3163 3163 3163 3163 3163 3163 3163 3164 3164 3165 3165 3166 3166 3166 3166 3168 3169 3170 3171 3172 3173 3174 3175 3176 3177 3178 3179 3181 3183 3185 3186 3187 3188 3188 3189 3190 3191 3192 3192 3193 3194 3195 3195 3195 3195 3196 3196 3196 3196 3196 3196 3195 3195
3160 3160 3161 3162 3162 3163 3164 3164 3165 3165 3165 3166 3166 3167 3167 3167 3167 3167 3167 3167 3167 3167 3167 3166 3166 3166 3166 3166 3164 3164 3163 3163 3163 3163 3163 3163 3163 3164 3164 3164 3164 3165 3165 3166 3166 3166 3166 3167 3169 3170 3171 3172 3173 3174 3175 3176 3177 3178 3180 3182 3184 3185 3186 3187 3188 3189 3190 3191 3192 3192 3193 3194 3195 3196 3196 3196 3196 3197 3197 3197 3197 3197 3197 3196 3196
3159 3160 3161 3162 3162 3163 3163 3164 3164 3165 3165 3165 3166 3166 3166 3166 3166 3166 3166 3167 3166 3166 3166 3165 3164 3165 3166 3166 3164 3164 3163 3163 3162 3162 3163 3163 3163 3164 3164 3164 3164 3165 3166 3166 3166 3166 3166 3167 3168 3170 3171 3172 3173 3174 3175 3176 3177 3179 3180 3182 3185 3186 3187 3189 3189 3190 3190 3191 3193 3193 3194 3194 3195 3197 3197 3198 3197 3197 3198 3198 3198 3198 3197 3197 3197
3159 3160 3161 3162 3162 3162 3163 3163 3164 3164 3165 3165 3165 3165 3165 3165 3165 3165 3165 3165 3165 3165 3165 3164 3163 3163 3165 3165 3164 3163 3163 3162 3162 3162 3163 3163 3163 3164 3164 3164 3164 3165 3165 3166 3166 3166 3166 3166 3168 3169 3171 3172 3173 3174 3175 3176 3178 3180 3181 3183 3185 3187 3189 3190 3190 3191 3191 3192 3193 3194 3195 3195 3196 3197 3198 3198 3198 3198 3199 3199 3198 3198 3198 3198 3198
3159 3160 3161 3161 3162 3162 3162 3162 3163 3164 3164 3164 3164 3164 3164 3164 3164 3164 3164 3164 3163 3163 3163 3163 3163 3163 3163 3164 3164 3163 3162 3162 3161 3162 3163 3164 3164 3163 3163 3163 3164 3164 3165 3165 3166 3166 3166 3166 3167 3169 3170 3172 3173 3173 3175 3176 3178 3180 3182 3183 3185 3187 3189 3190 3191 3191 3192 3193 3194 3194 3195 3196 3197 3197 3198 3199 3199 3199 3199 3199 3199 3199 3199 3199 3199
3159 3160 3161 3161 3161 3162 3162 3162 3162 3163 3163 3163 3163 3163 3163 3163 3163 3163 3163 3163 3162 3162 3162 3162 3162 3163 3163 3163 3163 3163 3162 3161 3161 3161 3162 3163 3164 3163 3163 3163 3163 3164 3164 3165 3166 3166 3166 3166 3167 3169 3170 3171 3172 3173 3174 3176 3178 3180 3182 3183 3185 3187 3189 3190 3191 3192 3193 3194 3195 3195 3196 3197 3198 3198 3199 3200 3200 3200 3200 3200 3200 3200 3200 3199 3199
3159 3160 3161 3161 3161 3161 3161 3161 3161 3162 3162 3162 3163 3163 3162 3162 3162 3162 3162 3162 3162 3163 3163 3162 3162 3162 3162 3162 3162 3162 3161 3161 3160 3160 3161 3162 3163 3163 3163 3162 3162 3163 3164 3165 3165 3166 3166 3166 3167 3168 3169 3171 3172 3173 3174 3176 3178 3180 3181 3183 3184 3187 3188 3190 3191 3192 3193 3194 3195 3196 3197 3198 3198 3199 3199 3200 3201 3201 3201 3201 3201 3200 3200 3200 3200
3159 3160 3161 3161 3161 3161 3160 3160 3160 3161 3161 3161 3162 3162 3161 3161 3162 3162 3162 3162 3162 3162 3162 3162 3162 3162 3162 3162 3162 3161 3161 3160 3160 3160 3160 3161 3162 3162 3162 3162 3162 3162 3163 3164 3165 3166 3166 3166 3166 3168 3169 3170 3172 3173 3174 3176 3178 3179 3181 3182 3184 3186 3188 3189 3191 3193 3194 3195 3196 3197 3198 3198 3199 3200 3200 3201 3201 3201 3201 3201 3201 3201 3201 3200 3200
3159 3160 3160 3160 3160 3160 3160 3159 3159 3160 3160 3160 3161 3161 3161 3161 3161 3161 3162 3162 3162 3161 3161 3161 3161 3161 3161 3161 3161 3161 3160 3160 3159 3159 3160 3160 3161 3161 3161 3161 3161 3162 3162 3163 3164 3165 3166 3166 3166 3167 3168 3170 3171 3173 3174 3176 3177 3178 3180 3182 3183 3185 3187 3189 3191 3193 3194 3196 3197 3198 3198 3199 3200 3200 3201 3201 3202 3202 3202 3202 3202 3201 3201 3201 3200
3159 3159 3160 3160 3159 3159 3159 3159 3159 3159 3159 3159 3160 3160 3160 3160 3160 3161 3161 3162 3161 3160 3161 3161 3161 3161 3161 3161 3161 3160 3160 3160 3159 3159 3160 3159 3160 3160 3160 3161 3160 3161 3161 3162 3163 3165 3165 3166 3166 3167 3168 3169 3171 3172 3174 3175 3177 3178 3180 3182 3183 3184 3186 3188 3190 3193 3194 3196 3197 3198 3199 3199 3200 3201 3201 3202 3202 3202 3203 3203 3202 3202 3202 3201 3201
3158 3159 3159 3159 3159 3158 3158 3158 3158 3158 3158 3158 3159 3159 3159 3159 3159 3160 3160 3161 3161 3160 3161 3161 3161 3161 3160 3160 3160 3160 3160 3160 3159 3159 3159 3159 3159 3159 3160 3160 3160 3160 3160 3161 3163 3164 3165 3165 3166 3167 3168 3169 3171 3172 3174 3175 3176 3178 3179 3181 3183 3184 3186 3188 3190 3192 3193 3195 3196 3198 3198 3199 3200 3201 3202 3202 3202 3203 3203 3203 3203 3203 3202 3202 3202
3158 3158 3158 3158 3158 3158 3157 3157 3157 3157 3157 3157 3157 3158 3158 3158 3158 3158 3159 3160 3160 3160 3160 3160 3160 3160 3160 3160 3160 3160 3160 3160 3160 3159 3158 3158 3158 3159 3159 3159 3159 3159 3160 3161 3162 3163 3165 3165 3166 3168 3168 3169 3171 3172 3174 3175 3176 3178 3179 3181 3182 3185 3186 3187 3189 3191 3192 3194 3196 3197 3198 3199 3200 3201 3201 3202 3203 3203 3203 3203 3203 3203 3203 3203 3202
3158 3158 3158 3158 3157 3157 3157 3156 3156 3156 3156 3156 3156 3156 3157 3157 3157 3157 3158 3158 3158 3158 3159 3159 3160 3160 3159 3159 3160 3160 3160 3160 3159 3158 3158 3158 3158 3159 3159 3158 3158 3159 3159 3160 3161 3163 3164 3165 3167 3168 3169 3170 3171 3172 3173 3175 3176 3177 3179 3180 3182 3185 3186 3187 3188 3190 3191 3193 3194 3196 3197 3198 3199 3200 3201 3202 3202 3203 3203 3203 3204 3204 3203 3203 3203
3157 3157 3157 3157 3157 3156 3156 3155 3155 3155 3155 3155 3155 3155 3156 3156 3156 3156 3157 3157 3157 3158 3158 3158 3159 3159 3159 3160 3160 3159 3159 3159 3159 3158 3158 3158 3158 3158 3158 3158 3158 3158 3159 3160 3161 3162 3164 3165 3166 3168 3169 3170 3171 3172 3173 3175 3176 3177 3178 3180 3182 3185 3186 3187 3188 3190 3191 3192 3193 3195 3196 3197 3198 3199 3200 3201 3202 3202 3203 3203 3204 3204 3204 3204 3204
3156 3156 3156 3156 3156 3156 3155 3155 3155 3154 3154 3154 3154 3155 3155 3155 3155 3155 3156 3156 3156 3157 3157 3158 3158 3159 3159 3159 3159 3159 3159 3159 3158 3157 3157 3158 3158 3157 3158 3159 3158 3158 3159 3160 3161 3162 3164 3165 3166 3168 3169 3170 3171 3172 3173 3174 3175 3176 3177 3179 3182 3185 3186 3187 3188 3190 3191 3192 3193 3194 3195 3196 3197 3198 3199 3200 3201 3201 3202 3203 3203 3204 3204 3204 3204
3156 3156 3156 3156 3155 3155 3155 3155 3154 3154 3153 3153 3153 3153 3154 3154 3154 3154 3154 3155 3155 3156 3157 3157 3157 3158 3158 3159 3159 3159 3159 3158 3157 3157 3157 3157 3158 3157 3158 3159 3158 3157 3159 3160 3160 3161 3162 3164 3165 3167 3169 3170 3171 3172 3173 3174 3175 3176 3177 3179 3181 3184 3186 3188 3188 3189 3191 3192 3193 3193 3194 3195 3196 3197 3198 3199 3200 3200 3201 3202 3203 3203 3204 3204 3204
3155 3155 3155 3155 3155 3154 3154 3154 3153 3153 3153 3152 3152 3152 3152 3152 3153 3153 3153 3154 3154 3155 3156 3156 3156 3157 3157 3158 3158 3158 3158 3158 3157 3157 3157 3157 3157 3157 3158 3159 3158 3157 3158 3160 3160 3161 3161 3162 3164 3166 3168 3170 3171 3172 3173 3174 3175 3176 3177 3178 3181 3183 3185 3187 3188 3190 3191 3193 3194 3194 3194 3195 3195 3196 3197 3198 3199 3200 3201 3201 3202 3203 3203 3203 3204
3154 3154 3154 3154 3154 3154 3153 3152 3152 3151 3151 3151 3151 3151 3151 3151 3152 3152 3152 3153 3153 3154 3155 3156 3156 3156 3156 3157 3157 3158 3158 3157 3157 3157 3157 3157 3157 3158 3158 3158 3158 3158 3158 3159 3160 3160 3161 3162 3163 3164 3166 3169 3170 3171 3172 3173 3174 3175 3176 3178 3180 3182 3184 3187 3188 3189 3191 3193 3194 3195 3195 3195 3195 3195 3196 3197 3198 3199 3200 3201 3202 3202 3202 3203 3203
3153 3153 3153 3153 3153 3153 3152 3151 3151 3150 3150 3150 3150 3150 3150 3150 3150 3151 3151 3152 3153 3153 3154 3155 3155 3155 3155 3156 3156 3157 3157 3156 3156 3157 3157 3157 3157 3158 3158 3158 3158 3158 3158 3158 3159 3160 3160 3161 3162 3163 3165 3167 3169 3171 3172 3173 3174 3175 3176 3177 3179 3181 3183 3186 3187 3189 3190 3192 3193 3195 3195 3196 3196 3196 3196 3197 3197 3198 3199 3200 3201 3201 3202 3202 3203
3152 3152 3152 3152 3152 3152 3151 3150 3149 3149 3149 3149 3149 3149 3149 3149 3149 3150 3150 3151 3152 3153 3153 3154 3154 3154 3155 3155 3156 3156 3155 3155 3155 3155 3156 3157 3157 3158 3158 3158 3158 3159 3159 3158 3158 3159 3160 3161 3162 3163 3164 3165 3167 3169 3171 3173 3173 3174 3175 3176 3177 3179 3182 3184 3186 3188 3189 3191 3193 3194 3195 3196 3196 3196 3196 3197 3197 3198 3198 3199 3200 3201 3201 3201 3202
3150 3150 3150 3150 3150 3150 3149 3148 3148 3147 3147 3147 3148 3148 3149 3149 3149 3149 3150 3150 3151 3152 3152 3153 3153 3154 3154 3155 3155 3155 3154 3154 3154 3155 3156 3156 3157 3157 3157 3158 3158 3159 3159 3158 3158 3159 3160 3160 3161 3162 3163 3164 3166 3167 3169 3172 3173 3174 3174 3175 3176 3178 3181 3182 3184 3186 3188 3190 3192 3193 3195 3195 3196 3196 3196 3197 3197 3198 3198 3199 3199 3200 3200 3201 3202
3148 3148 3148 3148 3148 3148 3147 3147 3146 3146 3146 3146 3147 3147 3148 3148 3148 3148 3148 3149 3150 3150 3151 3152 3153 3154 3154 3154 3154 3154 3154 3154 3154 3155 3156 3156 3156 3156 3157 3157 3158 3158 3159 3159 3158 3159 3160 3160 3160 3161 3162 3163 3164 3166 3168 3170 3172 3173 3174 3174 3175 3177 3179 3181 3183 3185 3187 3189 3190 3192 3193 3195 3195 3196 3196 3197 3197 3197 3198 3198 3199 3199 3200 3200 3201
3146 3146 3146 3146 3146 3146 3146 3145 3145 3145 3145 3145 3146 3146 3147 3147 3147 3147 3147 3148 3148 3149 3150 3151 3152 3153 3153 3154 3154 3154 3154 3154 3154 3155 3155 3155 3155 3155 3156 3156 3157 3157 3158 3158 3158 3158 3159 3160 3160 3160 3160 3161 3162 3164 3166 3168 3170 3172 3173 3174 3174 3176 3178 3180 3181 3183 3185 3187 3189 3190 3192 3193 3194 3195 3196 3196 3197 3197 3197 3198 3198 3199 3199 3200 3200
3145 3145 3145 3145 3145 3144 3143 3143 3143 3144 3144 3144 3145 3145 3145 3145 3146 3146 3146 3146 3147 3148 3149 3150 3151 3152 3152 3152 3153 3153 3153 3152 3153 3154 3155 3155 3155 3154 3155 3155 3156 3157 3158 3158 3158 3158 3159 3160 3159 3159 3159 3160 3160 3162 3164 3166 3169 3171 3172 3173 3174 3175 3177 3179 3180 3182 3184 3186 3187 3189 3190 3192 3193 3194 3195 3196 3196 3196 3197 3197 3197 3198 3198 3199 3199
3144 3144 3144 3145 3144 3143 3142 3141 3141 3143 3143 3143 3144 3144 3144 3144 3144 3144 3144 3145 3145 3146 3147 3149 3150 3150 3151 3151 3151 3152 3152 3152 3152 3153 3153 3154 3154 3154 3154 3155 3156 3157 3158 3158 3158 3157 3158 3159 3160 3159 3159 3159 3159 3160 3163 3165 3167 3169 3171 3172 3173 3174 3176 3178 3179 3181 3182 3184 3185 3187 3188 3190 3191 3192 3193 3194 3195 3195 3196 3196 3196 3197 3197 3198 3198
3143 3143 3143 3143 3143 3142 3142 3140 3140 3141 3142 3142 3143 3143 3143 3142 3142 3142 3143 3143 3144 3145 3146 3147 3148 3149 3149 3150 3150 3150 3150 3151 3151 3151 3153 3153 3153 3154 3154 3155 3155 3156 3157 3157 3157 3157 3157 3158 3159 3159 3159 3159 3159 3160 3161 3164 3166 3168 3170 3171 3173 3174 3176 3177 3178 3180 3181 3182 3184 3185 3187 3188 3189 3190 3192 3193 3193 3194 3194 3195 3195 3196 3196 3197 3197
3142 3142 3142 3142 3141 3141 3140 3140 3139 3139 3140 3141 3142 3142 3142 3141 3141 3141 3141 3141 3142 3143 3144 3145 3147 3147 3147 3148 3148 3148 3149 3149 3149 3151 3153 3153 3153 3153 3153 3154 3155 3154 3155 3156 3156 3157 3156 3157 3158 3158 3158 3159 3159 3160 3160 3162 3165 3167 3169 3170 3172 3173 3175 3176 3177 3179 3180 3181 3183 3184 3185 3186 3187 3189 3190 3191 3191 3192 3193 3193 3194 3195 3195 3196 3196
3140 3141 3141 3141 3140 3139 3139 3139 3138 3137 3138 3139 3140 3141 3141 3140 3139 3139 3139 3139 3140 3141 3142 3143 3144 3145 3146 3146 3146 3146 3147 3147 3149 3150 3151 3152 3152 3152 3152 3153 3153 3153 3153 3155 3155 3156 3156 3156 3157 3157 3158 3158 3159 3160 3161 3162 3164 3166 3168 3169 3170 3172 3173 3175 3177 3178 3179 3180 3181 3182 3184 3185 3186 3187 3188 3189 3190 3190 3191 3192 3193 3193 3194 3194 3195
3139 3139 3139 3140 3139 3138 3138 3138 3137 3137 3136 3137 3138 3139 3139 3139 3138 3138 3138 3138 3138 3139 3140 3141 3142 3144 3145 3145 3145 3145 3145 3146 3148 3148 3148 3149 3150 3151 3151 3151 3152 3152 3152 3153 3154 3155 3155 3156 3156 3157 3157 3157 3158 3159 3160 3161 3163 3165 3167 3168 3169 3170 3172 3173 3175 3177 3178 3179 3180 3181 3182 3183 3184 3185 3186 3188 3188 3189 3190 3191 3192 3192 3192 3193 3193
3137 3138 3138 3138 3138 3137 3136 3137 3136 3136 3136 3136 3137 3137 3137 3137 3137 3138 3138 3137 3136 3137 3138 3139 3140 3141 3143 3143 3143 3143 3144 3145 3146 3146 3145 3146 3149 3150 3149 3149 3150 3151 3151 3152 3153 3154 3155 3155 3155 3156 3157 3157 3157 3158 3159 3160 3161 3163 3165 3166 3168 3169 3170 3171 3173 3175 3176 3177 3178 3180 3181 3181 3183 3184 3185 3186 3187 3188 3189 3190 3190 3191 3191 3191 3191
3137 3137 3137 3137 3136 3136 3135 3135 3135 3135 3135 3135 3135 3136 3136 3135 3136 3136 3136 3136 3135 3135 3136 3138 3139 3139 3140 3141 3141 3142 3143 3145 3144 3144 3144 3144 3146 3148 3147 3147 3149 3149 3150 3151 3152 3153 3154 3154 3154 3154 3155 3156 3156 3157 3158 3159 3160 3162 3164 3165 3166 3167 3168 3169 3170 3172 3174 3175 3176 3178 3179 3180 3181 3182 3183 3184 3185 3186 3187 3188 3188 3189 3190 3190 3190
3136 3136 3136 3135 3135 3134 3134 3134 3133 3133 3133 3133 3133 3134 3134 3134 3134 3134 3134 3134 3134 3133 3133 3135 3137 3137 3138 3139 3139 3140 3142 3143 3143 3143 3143 3143 3143 3145 3146 3146 3147 3148 3149 3150 3151 3152 3153 3153 3153 3154 3154 3155 3155 3156 3157 3158 3159 3161 3162 3164 3165 3166 3167 3167 3168 3170 3172 3173 3174 3175 3177 3178 3179 3180 3180 3182 3183 3184 3185 3185 3186 3186 3187 3187 3188
3135 3135 3134 3133 3133 3134 3133 3132 3132 3132 3132 3131 3131 3132 3132 3133 3132 3132 3132 3132 3132 3132 3132 3133 3134 3134 3135 3136 3137 3138 3139 3140 3141 3141 3142 3143 3142 3143 3145 3145 3145 3146 3148 3149 3150 3151 3151 3151 3152 3153 3153 3154 3154 3155 3156 3157 3158 3159 3160 3161 3162 3164 3164 3165 3166 3167 3169 3170 3172 3173 3175 3176 3177 3178 3178 3179 3180 3181 3182 3183 3183 3184 3185 3185 3185
3134 3133 3133 3132 3133 3133 3132 3131 3131 3130 3130 3130 3130 3130 3130 3131 3131 3131 3131 3130 3129 3130 3130 3131 3131 3132 3132 3133 3134 3135 3136 3137 3138 3139 3141 3142 3141 3142 3143 3142 3142 3144 3147 3148 3149 3150 3150 3150 3150 3151 3152 3153 3153 3153 3155 3156 3157 3158 3159 3160 3160 3161 3162 3163 3164 3165 3166 3167 3169 3171 3172 3173 3175 3176 3176 3177 3178 3179 3180 3180 3181 3182 3182 3182 3183
3132 3132 3132 3132 3132 3132 3131 3131 3130 3129 3129 3129 3129 3129 3129 3130 3130 3130 3129 3129 3128 3128 3128 3129 3129 3130 3130 3131 3132 3133 3134 3135 3136 3137 3139 3140 3140 3140 3141 3141 3141 3142 3145 3147 3147 3148 3149 3149 3148 3148 3150 3152 3153 3153 3154 3155 3157 3157 3158 3158 3159 3159 3160 3161 3162 3163 3164 3165 3166 3168 3169 3170 3171 3173 3174 3174 3175 3176 3177 3178 3178 3179 3179 3179 3180
3130 3130 3131 3131 3131 3130 3130 3129 3129 3128 3128 3128 3128 3128 3129 3129 3129 3129 3128 3128 3128 3127 3127 3127 3128 3128 3129 3129 3130 3131 3131 3132 3134 3135 3137 3138 3138 3138 3139 3140 3140 3141 3143 3144 3145 3146 3147 3147 3147 3147 3148 3150 3152 3153 3153 3154 3156 3157 3157 3157 3158 3158 3158 3159 3160 3161 3162 3163 3164 3165 3166 3168 3169 3169 3170 3171 3172 3173 3174 3175 3175 3176 3176 3177 3177
3128 3129 3129 3130 3129 3129 3129 3129 3128 3128 3127 3127 3127 3127 3128 3128 3128 3128 3128 3128 3127 3127 3126 3126 3126 3127 3127 3128 3128 3129 3129 3130 3131 3133 3135 3136 3136 3136 3137 3139 3140 3140 3141 3142 3143 3144 3144 3145 3146 3146 3147 3148 3150 3151 3152 3153 3154 3156 3155 3155 3156 3156 3157 3158 3158 3159 3160 3161 3162 3163 3164 3165 3166 3167 3167 3167 3169 3170 3170 3171 3172 3173 3173 3174 3174
3126 3128 3128 3128 3128 3128 3128 3128 3128 3127 3127 3126 3126 3125 3126 3127 3127 3127 3127 3127 3127 3127 3126 3126 3126 3126 3126 3127 3127 3128 3128 3129 3130 3131 3132 3133 3134 3135 3135 3137 3138 3139 3140 3140 3141 3142 3143 3144 3144 3145 3146 3147 3148 3149 3150 3152 3152 3154 3154 3153 3154 3154 3155 3156 3157 3158 3158 3159 3160 3161 3161 3162 3163 3163 3164 3165 3166 3167 3167 3168 3169 3169 3170 3170 3171
3124 3126 3127 3127 3127 3127 3126 3126 3127 3126 3126 3126 3125 3124 3125 3125 3125 3126 3126 3126 3126 3126 3126 3125 3125 3125 3125 3126 3126 3126 3127 3127 3128 3129 3130 3131 3132 3132 3133 3134 3135 3136 3137 3138 3139 3140 3141 3142 3142 3143 3144 3145 3146 3146 3149 3150 3150 3151 3151 3152 3152 3151 3152 3154 3155 3156 3156 3157 3158 3159 3159 3159 3159 3160 3161 3162 3163 3164 3164 3165 3165 3166 3166 3167 3168
3123 3125 3125 3126 3126 3126 3125 3125 3125 3125 3125 3125 3124 3123 3124 3124 3124 3124 3125 3125 3125 3125 3125 3125 3125 3125 3125 3125 3125 3125 3126 3126 3126 3127 3127 3128 3129 3130 3130 3131 3133 3133 3134 3135 3136 3137 3138 3139 3140 3141 3141 3142 3143 3144 3147 3148 3147 3148 3149 3149 3149 3149 3150 3151 3152 3153 3154 3155 3156 3157 3157 3157 3156 3156 3157 3158 3160 3161 3162 3162 3162 3162 3163 3163 3164
3121 3123 3124 3124 3124 3124 3124 3124 3124 3124 3124 3124 3123 3122 3122 3123 3123 3123 3124 3124 3125 3125 3125 3125 3125 3125 3125 3125 3125 3125 3125 3125 3125 3125 3126 3126 3127 3128 3128 3129 3130 3131 3132 3133 3134 3134 3135 3136 3136 3138 3138 3139 3140 3141 3143 3145 3145 3146 3147 3147 3146 3147 3149 3149 3148 3149 3150 3152 3153 3154 3155 3155 3154 3154 3154 3155 3156 3157 3158 3159 3159 3159 3159 3160 3160
3120 3121 3122 3123 3123 3123 3123 3123 3123 3124 3124 3123 3123 3122 3121 3122 3122 3123 3123 3124 3124 3124 3125 3125 3124 3124 3124 3124 3124 3124 3124 3124 3124 3124 3125 3125 3125 3126 3126 3127 3128 3128 3129 3130 3131 3132 3132 3133 3133 3135 3136 3136 3137 3138 3139 3140 3141 3143 3144 3144 3144 3145 3147 3147 3146 3146 3146 3148 3150 3151 3152 3152 3152 3151 3152 3153 3154 3154 3155 3156 3156 3156 3156 3156 3157
3118 3119 3120 3121 3122 3122 3122 3122 3122 3123 3123 3123 3122 3122 3121 3121 3122 3122 3123 3123 3123 3124 3124 3124 3124 3123 3123 3123 3123 3123 3124 3124 3124 3124 3124 3124 3124 3125 3125 3125 3126 3126 3127 3128 3129 3129 3130 3130 3131 3131 3132 3133 3134 3135 3136 3137 3137 3139 3140 3141 3142 3143 3143 3143 3143 3143 3143 3144 3146 3148 3149 3149 3149 3149 3149 3150 3151 3152 3153 3153 3154 3154 3154 3154 3154
3116 3117 3119 3120 3120 3121 3121 3121 3121 3122 3122 3122 3121 3121 3121 3121 3121 3122 3122 3123 3123 3123 3123 3123 3123 3123 3123 3122 3122 3122 3123 3123 3123 3123 3123 3123 3124 3124 3124 3124 3124 3125 3125 3126 3126 3127 3128 3128 3128 3128 3129 3130 3131 3132 3133 3133 3134 3135 3136 3137 3138 3139 3139 3139 3139 3140 3141 3141 3142 3145 3146 3146 3146 3146 3147 3147 3148 3149 3150 3151 3151 3152 3152 3151 3151
3114 3116 3117 3118 3118 3119 3119 3120 3120 3121 3121 3120 3120 3120 3120 3120 3120 3121 3121 3122 3122 3122 3122 3122 3122 3122 3122 3122 3122 3121 3121 3121 3122 3122 3122 3123 3123 3123 3123 3123 3123 3123 3123 3124 3124 3125 3125 3126 3126 3126 3126 3127 3128 3129 3129 3130 3131 3132 3132 3133 3133 3134 3135 3135 3136 3137 3138 3138 3139 3141 3142 3142 3142 3143 3144 3144 3145 3145 3146 3147 3148 3149 3149 3149 3148
3113 3114 3115 3115 3116 3117 3117 3118 3118 3119 3119 3119 3118 3118 3119 3119 3119 3119 3120 3120 3120 3120 3120 3120 3120 3120 3120 3120 3120 3120 3120 3120 3120 3120 3120 3121 3121 3121 3121 3122 3122 3122 3122 3122 3123 3123 3123 3124 3124 3124 3124 3124 3125 3126 3126 3127 3128 3128 3129 3129 3129 3130 3130 3131 3133 3134 3134 3135 3135 3136 3138 3138 3138 3139 3140 3140 3141 3141 3142 3143 3145 3145 3146 3146 3146
Wind_Speed
9 7 6 5 4 4 2 1 2 3 3 3 4 5 5 7 7 8 7 7 7 8 8 8 7 5 2 2 4 6 6 5 5 6 7 9 12 14 15 16 16 15 12 11 10 12 13 13 16 22 25 25 24 22 22 23 24 26 28 28 30 31 30 30 30 30 29 29 28 27 27 27 27 26 25 23 22 21 21 20 20 20 20 21 21
8 7 5 5 3 3 2 2 3 3 3 3 4 5 6 7 8 8 7 7 6 7 8 8 7 7 5 2 2 3 3 3 4 5 7 10 13 15 16 16 16 15 12 10 10 11 12 12 17 23 25 25 24 22 22 23 24 26 28 28 29 30 30 30 30 29 28 27 26 26 26 26 26 25 23 22 21 20 19 19 18 19 19 20 20
8 6 5 5 3 3 2 2 3 4 4 4 4 5 5 7 7 8 7 6 5 5 6 7 7 6 5 3 2 2 1 1 3 4 6 10 13 16 17 17 16 15 12 11 11 12 11 12 18 24 25 25 24 23 22 23 24 27 28 28 29 30 29 29 29 29 28 26 25 26 25 24 24 23 22 21 19 18 18 17 17 17 17 18 18
7 6 5 5 4 3 2 2 3 4 5 5 4 4 5 6 7 8 6 5 4 4 4 5 5 4 4 4 2 2 2 1 2 3 5 9 13 14 16 16 15 14 12 12 13 13 12 14 19 24 25 25 24 23 23 23 25 27 28 27 28 29 29 29 29 28 27 25 24 25 24 23 23 22 21 19 18 17 16 16 16 15 16 17 17
6 6 5 4 4 4 3 4 4 5 6 6 4 4 5 5 6 6 5 3 2 2 3 3 4 3 4 4 3 3 2 2 0 2 3 7 12 13 14 14 13 13 13 12 13 14 13 15 19 23 25 25 25 24 23 24 25 27 28 27 28 29 29 29 29 28 27 26 24 24 23 23 22 20 19 18 17 15 14 14 14 14 14 15 16
7 5 4 3 4 4 5 5 5 5 6 6 4 4 4 5 5 4 3 1 1 0 0 1 2 3 3 3 3 3 2 3 2 1 2 4 11 13 13 12 12 12 13 13 13 14 15 16 18 22 25 26 25 25 24 24 25 27 29 28 28 29 29 29 29 28 26 25 24 24 22 22 21 19 18 17 15 14 13 12 12 12 12 13 14
6 5 3 3 4 5 6 6 6 6 5 5 4 4 3 4 3 3 2 2 3 3 2 2 2 0 1 3 3 3 2 2 2 1 0 2 8 13 13 12 11 11 13 13 14 15 16 16 18 22 25 26 26 25 25 24 25 27 29 28 27 28 28 29 29 28 26 25 24 23 22 21 20 18 17 16 14 13 11 11 10 10 10 11 12
6 5 4 4 5 5 5 6 6 6 5 4 4 3 3 4 3 3 3 3 4 4 4 4 5 4 3 2 1 1 2 1 1 1 1 3 7 11 14 13 11 11 13 13 15 16 17 17 19 23 26 26 26 25 25 24 24 26 28 28 26 26 27 28 28 28 26 24 23 23 22 20 19 17 16 14 13 12 10 9 9 8 8 9 10
6 5 5 4 5 5 5 6 6 6 4 4 4 4 3 3 4 4 4 4 5 5 6 5 4 5 6 5 3 2 1 0 1 1 2 4 6 10 13 13 12 12 12 13 15 16 17 17 19 24 26 26 26 25 25 24 24 26 27 27 26 25 26 27 27 27 26 24 23 22 21 20 18 17 15 14 12 11 9 8 7 6 7 7 8
5 4 5 5 6 6 5 5 5 5 4 4 4 4 3 3 4 5 5 5 5 6 6 6 4 4 6 7 6 4 3 2 2 2 3 5 7 9 11 13 13 13 13 14 15 16 17 18 20 25 27 26 26 25 25 24 24 25 27 27 26 25 25 26 26 27 26 24 23 23 21 19 17 16 14 13 11 10 8 7 6 5 5 6 6
4 4 4 5 6 7 6 6 6 5 5 5 5 5 4 3 4 4 4 4 5 6 6 6 6 6 7 7 8 7 6 4 3 4 4 6 8 9 11 12 13 14 14 15 16 16 17 18 22 27 28 27 26 25 25 24 24 25 26 27 27 25 25 25 26 26 25 24 23 22 21 19 16 15 13 12 10 9 7 6 5 4 3 4 5
4 5 5 6 6 7 7 7 7 7 7 7 6 5 4 4 3 4 3 3 5 6 6 7 7 8 9 8 8 8 9 8 5 5 5 8 9 9 11 12 13 13 14 16 17 17 17 19 24 28 28 27 27 26 25 25 24 25 26 27 27 25 24 25 26 26 24 23 23 21 20 18 16 14 12 11 10 8 7 6 4 3 2 2 3
5 5 5 6 7 8 8 8 8 9 9 9 7 6 5 4 4 4 3 4 6 8 7 8 9 10 10 9 8 7 10 9 7 6 7 9 9 9 11 12 12 13 14 17 19 18 18 21 25 29 29 28 27 26 25 25 24 25 26 27 27 26 24 24 25 25 23 22 22 21 19 18 16 14 12 11 10 8 7 5 4 3 2 1 1
6 6 7 7 8 8 9 9 10 11 11 10 9 7 6 5 5 4 4 6 8 9 8 8 10 11 11 10 9 7 9 9 8 7 9 10 11 11 12 13 13 13 15 17 20 19 19 22 26 30 30 29 28 27 26 25 24 25 26 26 27 26 25 24 24 24 23 21 21 21 19 17 16 14 12 11 10 8 7 5 4 3 2 1 1
8 8 8 8 8 9 9 10 11 12 12 11 10 8 7 6 6 6 6 6 8 9 9 9 10 11 12 11 10 9 9 10 9 8 9 11 12 13 12 13 13 14 15 17 21 21 20 24 27 30 31 29 28 27 26 25 25 25 25 26 27 27 25 24 23 23 23 21 21 20 19 17 16 14 13 11 10 8 7 6 5 4 3 3 3
7 7 7 7 8 8 9 10 10 12 12 11 10 9 9 8 7 7 6 6 7 8 9 10 11 11 12 12 11 10 10 10 10 9 10 11 13 14 13 13 13 13 14 16 22 23 21 25 28 30 31 30 29 28 27 26 25 25 25 26 27 27 25 24 23 23 23 22 21 20 19 18 16 15 13 12 10 9 8 7 6 6 5 5 4
6 6 6 7 7 8 8 8 9 11 12 12 12 11 10 9 8 8 7 7 8 9 9 10 10 11 13 13 11 10 11 10 10 9 10 11 12 13 13 14 13 12 13 16 22 23 22 25 29 30 31 30 29 28 27 26 25 24 24 25 27 26 25 24 24 24 23 22 21 20 19 18 16 15 14 12 11 10 9 8 7 7 7 6 6
3 3 4 5 6 6 7 7 8 10 12 13 13 12 12 11 10 10 9 9 9 9 9 9 10 11 12 12 11 9 10 9 9 10 10 10 10 10 11 13 11 11 13 16 21 24 22 24 29 30 31 31 29 29 28 27 26 25 25 25 26 26 25 24 24 24 23 23 22 21 20 19 17 15 14 13 12 11 9 8 8 9 8 8 7
2 2 3 3 4 5 6 7 8 9 11 13 14 14 13 13 12 12 10 9 8 8 8 8 9 9 10 10 9 7 8 9 10 11 12 12 9 7 9 11 10 10 13 17 20 23 21 23 28 30 31 31 30 29 28 27 26 25 25 25 25 25 25 24 23 22 22 22 22 21 20 19 18 16 15 13 12 12 10 9 9 9 9 8 8
2 3 3 4 5 6 7 8 9 10 11 12 14 14 14 14 13 12 11 9 8 8 8 8 9 9 9 8 6 6 7 8 9 10 12 13 9 6 9 11 10 10 13 17 20 22 21 21 26 30 31 31 31 30 29 28 27 26 26 25 25 25 25 24 23 22 21 22 22 21 20 19 18 17 15 14 13 13 11 10 9 9 9 9 8
3 3 3 4 5 7 7 8 10 11 13 13 13 13 13 14 14 13 11 10 8 8 8 8 8 8 8 7 6 6 7 7 7 8 9 10 9 7 9 10 9 10 12 15 19 21 22 21 23 28 30 31 31 30 29 28 28 27 26 26 25 25 25 25 24 22 21 21 22 21 21 20 19 18 16 15 13 13 12 10 9 9 9 9 8
4 3 3 5 6 7 8 8 10 11 13 14 14 12 11 12 12 13 11 10 9 8 9 9 9 9 8 7 6 6 5 5 6 6 7 8 8 8 9 10 9 10 11 14 18 21 23 22 22 26 29 31 32 31 30 29 29 28 27 26 25 26 26 26 25 24 21 20 20 20 20 19 19 18 17 16 14 13 12 10 9 9 9 9 8
4 4 5 6 7 8 7 8 9 10 12 13 14 13 12 12 11 12 11 11 10 9 9 9 11 10 9 8 7 6 4 4 5 6 7 8 8 8 8 8 9 11 11 12 15 18 20 21 22 24 27 30 32 32 31 31 30 29 27 26 25 26 26 26 26 25 23 20 19 19 18 18 18 18 17 16 15 13 11 11 10 10 10 9 8
5 5 7 8 8 8 7 7 8 9 10 11 13 13 13 13 12 12 11 12 11 10 8 9 10 10 10 9 7 5 5 5 6 8 8 8 8 8 6 6 8 9 10 11 12 15 16 18 20 22 24 29 32 33 33 31 31 30 29 27 26 26 26 27 27 26 24 22 19 18 17 17 17 17 16 16 15 14 13 12 11 11 10 10 9
7 8 9 10 9 8 7 6 8 9 10 10 11 11 13 14 14 13 12 11 10 9 8 7 8 9 10 9 8 8 8 8 9 10 10 8 8 9 7 5 6 7 8 9 9 11 13 15 17 19 22 26 31 34 34 33 32 31 30 29 27 26 26 27 28 27 25 23 21 19 18 17 16 16 16 15 15 15 14 13 12 11 10 9 8
10 10 10 11 10 10 9 7 8 10 10 9 10 10 11 13 15 14 13 11 10 9 8 7 7 8 8 8 10 10 11 11 10 10 11 11 10 10 8 5 4 4 5 7 8 9 10 12 14 16 19 23 29 34 36 35 34 32 31 30 28 27 27 27 28 27 26 24 22 20 20 18 17 16 16 15 15 15 14 13 12 11 9 8 8
12 12 11 11 11 10 10 9 9 9 10 9 9 9 10 11 13 14 14 13 11 10 9 8 8 7 6 8 10 12 12 12 11 11 11 13 14 12 10 7 5 3 4 5 6 7 9 11 12 14 16 19 25 32 36 36 35 34 32 31 30 28 27 27 27 28 27 25 23 22 21 20 19 18 16 16 15 14 14 13 12 11 10 8 8
13 12 12 12 12 11 11 11 10 9 9 9 9 9 9 10 11 13 14 14 13 12 11 9 8 7 6 8 11 12 12 11 12 13 13 15 16 15 12 10 8 5 3 3 4 5 8 10 11 12 13 15 20 29 36 38 37 35 34 33 31 29 27 27 27 27 27 26 24 24 23 22 21 20 18 17 16 15 15 14 13 12 11 10 9
13 12 12 12 11 12 12 12 11 9 9 9 8 8 8 9 10 11 13 14 15 13 11 10 9 8 8 10 13 13 12 12 13 13 14 16 17 16 14 13 12 9 6 3 3 4 5 9 11 11 11 12 16 24 33 38 39 37 35 34 32 30 28 27 27 27 27 27 26 25 24 24 23 22 21 20 19 17 16 15 14 13 12 11 10
12 13 13 11 10 11 11 13 13 10 9 8 7 6 7 9 10 11 12 14 14 13 12 10 9 9 10 12 14 14 13 13 13 13 14 16 16 16 15 15 15 13 10 7 5 4 4 6 9 10 10 10 13 19 29 36 39 38 36 35 33 32 29 28 27 27 28 27 27 26 25 25 25 25 23 22 21 20 18 17 16 14 13 12 11
12 12 12 11 10 11 11 13 13 10 9 8 6 5 6 8 10 11 13 14 14 13 13 12 10 10 11 13 15 15 14 14 15 14 13 14 15 14 14 15 15 14 12 9 7 4 3 4 6 8 8 8 11 15 23 32 37 38 36 35 34 32 30 29 28 27 27 27 28 27 27 26 26 26 25 24 23 22 21 19 18 16 15 13 12
12 12 11 10 10 11 11 12 13 11 10 8 6 5 5 7 9 11 13 14 15 14 15 15 13 12 13 14 15 16 15 16 16 12 11 13 14 14 15 15 14 12 11 11 9 5 3 5 5 6 7 7 9 12 19 27 33 35 36 35 34 33 31 30 29 27 27 27 27 28 28 27 26 26 26 26 25 24 22 21 19 18 17 15 14
12 12 10 9 10 11 11 10 11 11 10 9 8 7 7 7 9 10 12 14 15 16 17 18 16 15 15 15 16 17 17 16 14 12 12 13 14 15 16 15 14 14 13 12 11 7 6 7 7 7 8 9 9 10 14 21 27 31 33 34 34 34 33 31 30 29 27 27 27 27 28 28 27 26 26 26 26 25 24 22 20 20 18 17 16
11 12 10 10 10 11 10 10 10 10 10 10 9 9 9 10 10 11 11 13 15 16 18 20 20 19 19 18 18 18 18 16 15 15 15 16 16 16 16 16 16 16 15 14 13 12 11 11 10 9 8 9 10 10 12 17 20 24 28 31 31 32 33 32 31 30 29 28 27 27 27 27 27 26 25 25 26 25 24 22 21 21 20 18 18
10 11 10 10 10 10 10 9 9 10 11 11 11 11 12 13 13 13 12 13 15 16 17 18 19 21 21 22 21 20 19 18 17 16 17 18 17 16 17 17 17 16 16 16 16 16 16 15 13 12 9 8 10 11 11 13 14 18 23 27 28 28 30 32 33 32 31 30 29 28 27 27 27 26 25 24 25 25 24 23 22 21 21 21 21
10 11 11 11 10 11 10 10 10 11 12 14 14 14 15 15 15 15 14 14 15 16 16 16 16 18 20 22 23 22 20 18 18 18 18 19 17 17 19 19 18 17 17 17 17 17 18 20 17 14 11 8 9 9 8 8 9 12 17 21 25 25 26 28 32 34 33 32 31 30 29 28 27 27 26 25 25 25 25 25 24 23 23 23 23
13 13 13 13 11 11 11 11 12 12 13 14 14 14 15 15 15 15 16 15 15 16 16 15 14 16 17 20 23 24 22 18 18 19 19 19 19 19 19 19 18 17 18 17 17 17 17 21 19 12 10 8 7 8 8 6 6 7 11 15 19 21 22 24 28 31 34 34 33 32 31 30 29 28 28 27 26 26 26 26 26 25 25 25 25
12 11 13 13 9 9 11 11 11 11 11 12 13 13 13 13 13 14 14 15 15 15 15 14 14 15 15 17 20 24 25 22 20 19 18 19 21 21 20 20 19 18 17 16 17 17 14 15 16 10 10 9 7 9 10 8 7 7 8 10 13 16 18 21 23 26 29 33 35 34 33 32 31 30 29 29 28 28 28 28 28 27 26 26 26
11 11 13 12 8 10 12 11 10 9 9 10 11 11 11 10 10 11 11 13 14 13 13 13 13 14 15 15 17 21 25 26 24 20 18 18 20 21 21 22 22 19 17 16 17 17 14 13 11 8 11 10 9 11 12 12 11 10 10 10 12 13 14 16 18 20 22 26 31 33 34 34 33 32 31 30 30 30 30 30 29 28 27 27 27
11 11 13 13 13 15 15 13 11 9 8 8 9 9 8 7 7 8 9 10 10 11 10 11 11 12 13 13 14 16 20 25 26 23 19 19 20 21 22 23 23 22 19 18 19 19 17 15 13 12 12 11 11 13 14 15 15 14 13 13 14 13 13 13 14 16 17 20 24 27 30 32 33 33 32 32 32 32 32 32 31 31 30 30 30
12 12 14 15 16 17 17 18 15 10 8 7 8 8 6 5 5 6 8 8 8 9 9 9 9 10 10 10 12 13 16 20 24 25 23 21 21 22 22 22 24 24 22 20 20 20 19 17 17 16 15 13 14 16 17 18 18 17 16 15 15 15 14 14 14 15 16 17 20 22 24 27 29 30 31 31 32 33 34 34 34 33 33 33 33
14 14 15 17 17 18 18 18 19 14 9 8 8 8 6 5 5 6 7 6 7 8 8 9 9 9 9 8 9 11 13 15 18 22 24 24 24 23 22 21 23 25 23 21 20 20 19 19 19 18 18 17 18 20 20 20 20 19 18 18 18 18 16 16 16 15 16 17 18 19 21 22 24 27 29 29 30 31 32 33 34 34 34 34 33
16 16 17 18 18 18 18 17 20 18 11 9 9 9 7 5 5 5 4 4 5 6 6 7 8 8 8 8 8 9 9 11 13 15 19 22 25 26 26 25 25 25 24 22 22 21 21 21 21 20 20 20 21 23 22 21 21 22 21 21 22 22 21 20 18 16 16 17 16 17 18 19 21 24 26 27 27 27 28 30 31 31 32 32 32
18 18 19 20 19 17 17 18 21 19 12 10 10 10 9 6 4 2 2 2 2 3 4 4 5 5 6 7 7 8 8 9 10 12 14 17 20 24 26 28 29 29 28 27 26 26 26 26 25 25 24 24 25 25 23 22 23 25 24 24 25 26 26 24 21 19 18 19 18 18 19 19 20 21 23 24 24 25 26 26 27 28 29 30 30
20 20 21 21 19 18 18 19 21 18 12 10 11 11 9 6 4 3 3 2 1 1 1 2 2 2 3 4 4 5 6 7 9 10 12 14 16 19 22 25 27 28 29 29 29 29 30 30 29 28 28 28 27 26 24 24 26 27 26 25 27 29 28 26 25 24 23 22 20 19 20 19 19 19 20 21 22 23 24 25 25 25 26 26 27
23 22 21 20 20 18 18 20 21 17 13 12 12 11 9 7 5 4 4 2 1 1 1 1 2 2 1 1 2 2 3 4 6 8 10 12 14 16 18 20 22 24 26 27 28 28 28 29 30 29 29 29 28 27 27 26 27 28 28 27 28 29 28 27 28 28 26 24 22 20 20 20 20 21 21 21 21 21 20 20 20 21 22 24 24
25 24 22 21 20 19 18 20 21 17 14 13 12 11 10 8 6 5 4 3 2 1 2 3 3 3 3 2 1 1 2 3 4 5 7 9 12 14 16 17 19 20 22 23 24 25 26 27 28 28 29 29 29 29 29 29 28 29 30 29 29 30 29 27 27 28 27 26 24 22 21 21 22 23 23 21 20 19 18 16 16 16 17 18 20
26 25 23 22 21 20 19 21 21 17 14 14 13 11 10 10 8 7 6 4 4 5 6 6 6 5 5 5 5 4 4 4 4 5 6 7 9 11 13 14 16 18 19 21 22 23 25 26 27 28 28 28 29 29 30 31 31 31 32 31 30 32 33 31 30 31 31 30 28 25 24 23 23 23 23 21 20 20 19 18 18 17 16 15 15
25 25 23 21 20 21 22 23 21 17 15 15 14 12 11 11 11 10 9 7 8 8 9 8 7 7 7 8 8 8 7 7 7 7 7 7 8 9 10 11 13 14 16 17 19 20 22 24 26 28 29 29 29 30 31 32 32 33 33 33 32 33 35 35 33 33 33 32 31 28 26 26 25 25 24 23 22 22 21 21 21 20 18 15 14
23 24 23 22 21 23 25 25 22 17 16 16 15 13 11 12 12 12 11 10 10 11 11 10 10 10 9 10 10 11 10 9 9 9 8 8 9 9 10 11 12 12 13 14 15 16 18 20 22 25 27 29 30 31 32 32 33 33 34 35 36 36 37 37 36 34 33 32 32 30 28 29 29 27 27 26 26 25 24 24 23 21 18 15 14
21 22 24 23 23 26 26 25 22 18 16 16 16 15 12 12 13 14 13 12 13 14 13 13 13 13 12 12 12 12 12 11 10 11 11 11 10 10 10 11 11 12 13 13 14 14 15 16 18 20 23 25 28 29 31 33 33 34 34 35 36 36 37 38 37 36 35 34 33 32 30 31 32 32 31 30 30 30 30 29 26 24 22 18 15
Wind_Direction
189 202 209 222 234 245 249 214 163 129 116 102 94 85 64 50 43 34 32 38 42 42 41 40 41 40 59 188 191 177 169 168 170 179 190 193 190 183 180 179 182 185 188 191 190 190 189 192 184 173 167 163 159 156 154 154 152 154 160 165 167 167 165 161 156 151 148 148 148 147 147 144 140 136 131 127 122 117 111 105 99 92 87 82 78
191 201 208 222 237 250 251 204 179 156 141 124 111 94 66 53 44 35 34 33 34 42 46 47 54 50 43 12 258 213 170 150 156 167 178 183 185 181 177 179 184 187 189 190 183 184 184 187 181 172 167 164 162 159 157 156 156 157 162 168 169 169 167 164 159 154 151 152 152 151 151 148 144 140 135 129 125 119 113 106 99 93 87 82 78
190 199 212 232 241 246 248 205 188 171 158 143 125 95 70 58 45 36 32 21 16 29 37 38 49 54 50 35 328 278 254 141 139 151 169 176 180 180 180 183 189 191 189 186 178 178 179 178 175 172 168 165 164 161 160 160 160 160 164 169 171 171 169 167 162 157 155 156 157 156 155 153 149 144 138 133 128 122 115 108 101 94 88 82 78
183 197 217 235 242 243 236 208 189 176 170 159 142 99 76 64 49 41 34 23 13 11 18 16 22 35 46 45 24 334 295 270 128 132 165 179 179 180 184 188 193 194 190 186 181 178 177 174 172 172 170 168 167 164 164 165 165 164 165 170 173 172 171 170 166 161 159 159 161 159 158 157 154 148 142 137 132 125 118 110 102 96 89 83 78
184 197 219 237 247 245 229 213 188 179 176 168 151 105 86 71 57 49 44 39 28 13 19 15 16 10 17 34 38 21 344 327 21 119 149 184 185 181 184 191 193 192 188 189 187 183 178 174 174 174 173 171 170 167 168 170 169 167 167 172 174 174 173 172 169 165 162 163 164 163 161 161 159 154 147 142 137 130 121 112 103 96 89 84 79
184 193 213 234 246 238 226 213 188 184 183 173 150 121 102 84 69 65 68 81 150 221 10 44 36 4 352 15 37 36 22 5 343 43 117 181 192 188 185 191 194 192 189 191 193 188 183 179 179 179 176 173 172 171 172 175 174 170 169 172 175 175 175 174 172 169 166 166 166 165 164 164 163 160 153 149 144 136 127 116 107 98 90 84 80
174 179 194 220 226 224 223 208 190 188 184 171 153 145 122 105 95 98 123 162 194 221 220 181 149 89 336 360 27 35 32 34 3 343 39 181 193 194 192 193 197 199 195 194 195 193 188 184 183 182 179 176 175 175 176 179 178 174 171 173 176 177 177 176 174 172 169 169 169 168 167 167 167 165 160 156 153 144 135 124 113 101 91 84 79
161 171 188 209 212 210 212 199 191 188 181 172 167 171 146 130 135 145 166 186 208 225 224 196 170 178 219 265 333 353 11 36 35 23 277 218 194 195 196 199 202 206 204 198 198 196 191 188 185 183 181 179 178 179 180 182 181 178 173 173 177 180 180 178 177 175 171 172 173 172 170 170 169 169 166 163 161 154 144 133 121 106 92 83 77
146 167 187 199 208 210 208 199 199 201 206 200 196 198 173 157 163 172 182 193 214 224 230 222 188 187 210 226 235 264 291 246 168 124 266 239 204 196 198 203 206 207 209 206 202 198 193 190 185 182 182 181 181 182 184 184 183 181 176 172 176 181 182 181 180 178 175 175 177 176 174 173 172 171 171 170 168 162 153 142 130 112 94 81 75
133 158 181 197 210 219 219 211 213 220 233 230 227 229 212 185 179 185 189 194 213 223 232 237 228 221 222 226 227 244 262 232 197 179 237 240 215 201 201 205 208 208 212 212 206 200 196 191 183 181 182 182 184 185 187 187 185 184 178 173 176 181 184 183 183 181 178 178 180 179 178 177 175 173 174 175 173 170 162 153 141 122 97 82 72
142 163 179 202 215 224 228 230 239 246 254 259 257 255 241 208 192 190 190 196 213 224 233 235 238 243 240 234 229 238 255 256 232 202 216 228 215 207 206 206 210 212 214 214 208 202 198 193 182 178 181 183 186 187 189 189 186 185 181 175 176 181 185 186 186 185 181 182 184 183 182 180 178 175 175 176 177 176 172 166 154 135 106 86 70
175 183 196 211 225 232 240 250 258 262 264 270 268 265 253 227 204 187 180 188 215 228 231 234 240 245 244 241 235 235 241 248 246 220 211 213 206 207 212 211 213 214 215 215 209 204 199 194 182 177 180 183 187 190 192 191 187 186 184 178 177 180 184 187 189 187 184 185 187 187 185 183 182 178 175 175 176 176 174 174 165 147 124 95 64
200 206 220 223 232 238 249 258 260 263 262 266 265 267 261 245 225 198 181 183 216 234 229 231 240 249 252 251 249 240 233 235 240 231 217 208 205 209 215 215 215 212 213 215 209 205 201 194 183 177 179 183 187 191 194 193 189 188 187 182 177 178 184 189 191 189 186 188 189 190 189 186 186 183 177 177 177 176 174 176 174 167 164 136 28
212 217 229 231 237 243 249 254 256 258 257 259 258 260 260 254 243 225 210 199 216 233 235 239 244 252 259 261 260 252 240 236 238 235 224 213 213 218 218 218 216 210 213 214 208 205 202 195 185 179 180 184 188 192 195 195 192 190 190 187 179 178 183 188 191 190 188 189 192 193 193 190 190 190 185 184 185 185 185 188 195 200 212 244 318
217 219 229 236 243 248 250 253 253 254 253 254 254 253 252 250 247 239 228 214 220 233 245 252 252 257 261 265 266 263 255 246 243 238 232 221 219 224 223 222 218 214 215 213 206 206 204 198 189 182 182 185 188 193 195 196 195 192 191 190 183 179 182 187 191 192 190 190 194 195 197 196 196 198 197 196 200 202 205 210 222 233 243 264 296
220 225 236 244 249 248 250 253 254 252 249 249 249 248 244 244 247 246 239 231 236 243 254 258 258 261 263 266 267 270 265 253 247 247 245 235 230 228 224 223 221 217 216 210 205 206 206 201 193 186 185 187 189 194 195 196 197 195 192 193 188 181 180 185 190 192 192 192 195 197 200 202 203 205 207 208 212 218 224 230 241 253 262 273 291
217 231 241 248 249 248 250 253 257 252 245 244 245 243 240 240 244 249 251 253 256 256 258 260 261 261 263 268 269 272 271 259 249 251 254 245 239 235 226 222 220 216 213 209 204 205 208 204 197 189 188 190 191 194 196 197 198 197 195 195 193 184 179 185 191 193 193 193 195 198 201 205 209 211 215 217 221 227 234 244 253 263 270 278 290
194 219 236 246 250 254 259 258 258 252 243 241 241 242 240 241 247 254 262 264 262 260 259 262 262 259 262 269 272 276 278 272 257 253 257 253 244 240 235 224 218 215 210 208 204 204 209 208 201 193 190 193 193 195 197 199 199 198 198 198 195 188 183 186 192 194 193 193 195 198 201 205 210 215 219 223 226 232 238 248 258 266 272 280 289
188 218 245 260 270 276 280 275 269 260 247 240 240 243 245 248 254 259 267 268 262 257 256 259 258 258 262 268 277 286 290 284 270 257 253 255 246 238 245 232 215 212 209 207 204 203 209 211 205 197 194 195 196 197 198 200 200 199 199 200 197 192 188 187 191 196 195 194 194 196 199 202 207 212 218 224 228 233 237 245 255 265 271 278 286
234 255 275 283 295 297 296 291 283 273 259 249 245 245 249 253 257 262 267 268 261 254 253 256 256 257 259 264 279 291 296 289 277 264 252 252 248 234 247 238 210 203 209 206 202 202 209 214 209 203 198 198 199 199 199 201 202 202 201 200 198 196 194 189 190 197 197 197 195 194 196 198 202 207 213 219 225 231 233 237 247 258 267 273 280
257 267 288 302 310 305 301 295 288 279 270 262 254 251 253 255 258 262 267 267 260 253 251 253 255 255 252 255 276 291 295 286 273 263 248 246 246 234 240 236 201 190 205 206 203 202 207 214 212 208 203 201 201 201 200 202 204 205 204 201 198 198 197 194 193 197 199 201 198 193 195 196 199 203 206 212 218 226 228 229 237 249 259 267 273
251 267 303 320 320 310 304 294 285 278 274 270 265 260 259 259 259 261 262 262 255 246 244 246 251 253 249 247 263 280 284 275 262 248 233 228 233 227 225 221 191 179 195 203 203 202 206 210 211 210 207 205 205 203 202 203 205 207 208 205 201 198 198 198 199 200 201 204 204 198 195 196 197 199 201 204 209 216 220 222 228 240 250 258 264
249 286 317 323 321 315 310 295 283 276 274 272 268 264 260 260 260 260 257 254 250 243 240 241 248 249 248 247 251 262 261 257 243 222 217 213 210 210 209 203 186 177 184 195 198 199 203 207 209 209 208 207 208 207 204 204 206 208 210 209 205 201 198 199 203 205 205 206 209 207 200 197 198 198 199 201 203 205 210 216 223 232 240 248 256
275 305 313 315 317 320 316 293 279 271 270 268 266 262 257 257 257 259 258 254 250 247 245 242 247 246 246 248 244 236 225 232 222 204 207 207 197 193 196 192 186 182 179 185 193 197 202 207 209 209 209 208 208 210 208 206 207 208 210 210 208 206 200 199 203 206 207 207 210 213 208 202 202 201 201 203 205 203 203 210 219 227 234 240 248
293 304 305 308 313 316 307 284 273 266 264 263 265 265 259 255 253 255 257 256 253 251 250 245 247 247 247 247 237 221 213 216 210 204 202 196 190 186 191 193 187 188 185 184 192 200 204 209 211 211 211 210 208 209 211 209 208 209 210 211 209 207 204 201 204 206 208 208 209 215 215 208 207 206 204 207 209 208 205 207 214 221 229 236 245
300 304 304 305 307 308 302 291 279 272 270 267 268 270 268 263 256 254 254 255 255 252 249 245 247 247 247 246 232 218 214 210 207 212 204 195 197 193 190 192 183 189 203 196 197 208 213 213 215 215 214 214 210 208 210 211 211 210 211 212 211 208 205 203 206 207 208 210 208 212 217 213 211 210 209 210 213 214 212 211 214 219 225 235 247
305 307 305 303 304 303 300 295 285 280 281 280 278 274 273 271 263 258 254 254 255 253 251 250 247 239 237 238 227 219 218 212 209 214 207 201 204 202 194 196 200 197 212 208 204 218 226 222 220 220 218 218 214 210 209 211 213 212 212 213 214 211 206 205 207 208 208 211 211 211 216 216 214 213 213 214 217 219 219 219 221 224 227 236 248
303 304 303 302 305 304 300 292 284 284 283 283 283 277 272 269 267 263 258 256 255 254 256 253 245 228 219 227 224 221 219 218 216 211 209 208 206 207 202 207 224 227 216 207 207 222 237 235 226 224 223 220 217 211 208 210 213 214 213 214 216 215 210 207 208 209 208 211 213 212 215 218 218 217 217 219 222 224 226 228 229 231 234 238 246
296 296 295 299 304 304 300 290 284 284 282 280 280 276 272 268 267 266 262 258 255 254 253 246 239 226 218 225 227 225 222 226 226 211 208 212 210 212 212 217 228 231 231 237 225 219 239 246 235 224 223 221 216 212 209 209 212 215 216 215 216 217 215 212 210 210 209 210 214 216 216 218 220 221 222 224 227 229 232 234 235 238 242 243 246
287 287 288 293 295 293 290 286 285 285 283 280 277 275 270 265 263 262 261 259 256 253 247 239 237 231 226 229 232 232 230 236 233 216 210 213 214 216 218 223 227 228 235 253 257 230 227 253 250 234 223 220 213 210 209 209 212 215 218 218 218 219 218 217 215 212 211 211 214 217 220 220 221 222 224 226 229 232 235 237 239 241 245 248 250
276 278 282 287 287 285 282 283 286 285 280 275 275 276 265 259 258 257 259 259 256 250 242 240 238 232 231 235 238 239 238 242 237 220 212 214 217 218 218 223 224 224 226 242 260 245 213 238 259 244 225 224 217 210 208 209 213 216 219 222 222 222 222 221 220 217 214 213 214 216 221 224 224 224 225 227 229 232 235 238 242 243 246 250 253
269 271 276 284 285 283 281 283 285 282 277 271 267 264 257 256 256 256 257 257 255 247 241 240 236 229 232 237 240 242 243 246 244 232 219 214 214 216 217 220 221 221 218 229 244 240 218 221 236 232 210 210 211 207 208 209 213 217 221 225 226 225 225 225 225 223 219 217 216 217 221 225 228 228 228 228 230 232 234 237 242 245 247 249 251
265 268 273 279 278 277 276 276 278 280 279 274 267 259 253 254 254 255 255 255 254 248 245 242 236 231 232 239 242 243 245 248 251 249 239 222 213 213 215 218 219 219 218 220 224 224 220 216 222 224 213 211 207 201 205 207 211 217 223 227 230 231 229 228 228 228 225 221 220 219 221 225 229 232 232 231 231 232 233 234 238 244 247 247 248
264 270 277 280 277 274 272 268 269 272 275 277 275 267 260 256 255 255 256 257 254 248 246 244 242 236 233 238 241 242 244 248 250 247 243 233 222 217 213 214 217 218 222 223 219 221 221 219 225 229 219 216 221 219 208 204 207 215 222 228 232 235 234 232 230 230 230 228 224 223 223 224 228 232 234 234 233 232 233 232 233 237 244 246 247
267 277 284 286 280 272 268 264 262 265 269 272 273 269 264 262 259 258 257 257 257 252 247 245 245 242 236 235 236 241 245 249 252 247 243 238 228 221 217 215 216 219 226 230 230 228 226 224 225 226 217 204 213 224 215 206 206 213 221 227 232 236 238 237 235 233 233 233 230 228 226 226 228 231 234 234 233 232 232 232 231 233 239 244 248
271 281 288 291 283 271 268 264 263 264 268 269 268 266 264 263 261 259 256 255 257 257 254 248 244 243 240 234 231 237 243 246 250 250 248 247 238 228 227 224 222 225 228 231 235 235 238 238 227 214 207 199 203 219 226 215 215 222 225 229 233 237 240 241 240 238 237 237 236 233 231 230 229 230 233 233 232 231 231 233 233 233 236 241 246
278 287 301 303 285 271 271 271 270 267 268 270 269 268 266 265 263 259 256 255 255 255 257 254 248 245 241 234 229 232 239 240 243 248 251 253 248 237 235 235 232 231 229 231 234 238 252 245 226 209 202 201 207 225 243 236 226 240 238 236 237 240 244 245 245 244 241 240 240 239 237 235 234 233 234 234 233 232 232 234 236 236 237 240 244
294 306 327 321 293 282 280 272 273 273 271 274 275 274 271 270 268 263 260 259 256 253 253 251 247 246 243 235 229 228 232 234 238 244 247 250 251 245 243 245 244 238 230 232 233 238 252 230 206 206 214 210 214 229 249 253 242 248 251 247 244 243 246 248 248 248 246 244 242 243 243 241 240 239 238 238 237 236 236 237 240 241 242 243 245
309 323 336 331 318 321 311 287 277 278 279 280 282 284 284 283 277 270 264 260 258 257 254 248 241 241 242 237 231 227 225 229 233 238 241 244 247 247 245 246 247 244 235 236 237 239 247 232 213 225 231 221 221 228 244 252 244 246 251 252 251 248 248 250 252 252 249 247 245 244 246 246 246 244 243 242 241 241 242 242 244 245 246 247 248
307 317 325 320 317 325 330 321 301 285 287 291 290 292 292 290 283 268 259 257 258 260 258 252 245 240 240 236 234 231 226 227 230 233 237 238 240 243 242 243 246 247 243 241 243 242 243 245 243 241 238 228 225 233 248 252 244 243 250 253 254 255 252 251 250 249 248 247 247 246 246 248 249 249 248 247 247 246 246 247 247 248 249 250 251
298 309 314 310 312 317 325 330 323 303 291 294 290 285 281 271 257 237 238 247 253 259 260 257 254 249 245 238 233 232 229 228 228 230 232 234 238 241 239 240 245 247 248 244 242 243 244 246 246 244 243 237 235 242 250 252 246 245 251 253 254 253 253 255 252 249 246 245 248 248 247 248 250 251 251 250 250 251 251 251 251 251 252 252 253
293 304 307 303 307 312 314 322 328 318 294 290 288 280 277 254 232 218 221 234 238 245 254 257 258 255 250 244 238 234 232 232 231 230 232 234 238 241 239 239 243 245 247 244 240 242 246 248 249 248 247 244 243 245 249 251 247 247 250 251 253 254 255 259 257 254 253 250 252 255 256 254 253 253 252 252 252 252 253 253 254 254 254 254 255
291 298 301 301 303 306 306 312 325 321 297 290 296 289 287 266 238 226 222 234 233 232 240 247 256 258 254 247 242 240 237 235 236 234 234 235 238 240 242 242 243 243 243 243 242 245 248 250 253 254 252 249 244 241 242 246 245 245 248 251 255 257 259 261 259 255 254 254 258 265 270 268 263 260 257 255 254 254 254 254 255 255 255 256 256
287 292 296 301 300 297 298 307 322 321 298 292 299 293 291 281 266 266 264 262 240 231 236 242 254 259 260 256 248 242 237 235 236 236 234 235 236 238 241 242 243 244 244 245 246 249 252 254 256 257 257 256 251 244 239 240 242 240 243 251 252 254 261 265 260 255 254 256 261 268 273 274 272 270 268 265 260 256 255 254 254 254 255 255 256
283 291 295 298 293 289 294 305 321 319 297 293 295 289 291 291 294 312 325 330 294 248 255 258 257 241 236 246 249 244 238 234 233 235 235 235 235 235 238 240 241 243 244 245 246 248 251 253 254 255 255 255 256 255 250 247 246 241 241 248 249 253 262 264 260 257 256 258 263 266 267 269 271 274 276 275 269 262 256 253 253 253 254 255 254
282 290 294 294 286 284 292 305 319 315 294 292 290 286 292 294 298 308 313 312 301 338 358 290 268 241 208 206 226 230 233 235 230 230 235 237 237 236 237 239 240 242 243 244 245 245 247 249 250 251 251 251 251 252 252 251 250 248 246 248 250 253 256 258 261 262 259 258 261 262 261 263 267 272 276 276 274 269 260 255 254 254 254 254 253
281 285 289 288 282 282 291 305 313 306 291 289 283 280 286 284 284 286 277 270 272 257 262 283 287 290 306 311 299 280 262 259 245 235 235 238 240 241 240 241 241 242 243 244 245 245 245 245 245 246 247 248 247 246 247 246 245 246 247 249 252 252 250 251 257 260 260 261 260 258 257 259 263 266 269 270 270 270 267 261 257 256 257 257 257
277 279 282 284 282 283 290 301 305 296 287 286 278 272 273 270 267 263 251 239 237 240 252 269 284 293 303 305 302 298 287 279 267 255 248 243 243 244 246 246 245 245 245 245 246 246 246 246 245 243 241 241 243 243 245 246 244 243 244 247 250 250 250 251 252 254 259 260 259 257 257 257 258 260 262 262 263 268 270 268 264 261 260 261 264
274 275 278 280 280 281 287 296 299 290 284 285 276 266 263 260 257 255 252 248 246 253 264 271 278 283 288 292 290 286 282 278 269 259 255 252 249 247 247 249 250 249 248 248 247 246 246 246 246 245 243 239 238 238 240 243 244 244 244 243 244 245 248 251 252 254 258 260 261 260 259 258 256 255 256 254 256 263 267 266 266 264 260 259 263
274 274 277 276 275 279 284 292 295 285 279 282 274 263 259 258 257 257 256 258 262 269 276 279 282 282 281 281 277 276 277 277 274 268 263 258 253 251 249 249 250 252 253 252 250 249 247 247 247 247 247 246 243 241 240 241 243 244 245 245 245 245 248 250 251 253 256 259 261 261 259 260 260 256 252 249 250 258 262 263 265 264 261 259 258
274 276 277 273 274 279 283 290 291 279 271 275 271 262 260 261 260 260 262 266 272 278 284 287 288 288 285 280 274 271 272 273 275 274 272 268 262 257 254 252 252 253 256 256 256 255 252 252 253 252 252 251 249 247 246 245 244 244 245 246 248 250 250 251 252 253 254 256 258 259 258 259 261 258 253 249 250 255 258 261 262 260 261 263 258